User: anonymous
Location: Saddleback Butte
(34.6776°N, 117.8050°W)
Time: 02:45:15
(UTC-07:00)
Language:

Cosmos 1862 Rocket - Orbit

View from above orbital plane
View from above orbital plane
View from above satellite
View from above satellite

Ground track
Ground track

The orbit data is extracted from the following two-line orbital elements,

1 18153U 87055B   14292.10215682  .00000497  00000-0  58461-4 0  4809
2 18153 082.4979 296.9037 0022653 048.7490 013.4250 14.82700896474291
Epoch (UTC): 19 October 2014 02:27:06
Eccentricity: 0.0022653
inclination: 82.4979°
perigee height: 605 km
apogee height: 636 km
right ascension of ascending node: 296.9037°
argument of perigee: 48.7490°
revolutions per day: 14.82700896
mean anomaly at epoch: 13.4250°
orbit number at epoch: 47429

The dashed part of the orbit path shows where the satellite is in the earth's shadow,  

DLR